Find Starlink 33584

NORAD ID: 62761 Int'l Des: 2025-015 Owner: SPXS Country: US Constellation: starlink operational
LEOCIRCULAR

現在のビュー

3D地球を読み込み中...

About Starlink 33584

Starlink 33584 (NORAD 62761) is a starlink constellation satellite (v2 mini) launched Jan 21, 2025 by SPXS of US. It operates in LEO, CIRCULAR orbit with a mass of 575.00 kg.

次回通過

Passes for default location (London). Set your location on the main map for personalized predictions.

高度履歴

Loading altitude history...

軌道要素

1 62761U 25015D 26263.82966080 .00015396 00000-0 46578-3 0 9990
2 62761 53.1583 132.1042 0001154 105.8340 254.2790 15.34405676 94412
Epoch: Sep 20, 2026 • Age: 24 hours

現在のステータス

高度 465.4 km
遠地点 / 近地点 N/A
速度 7.63 km/s
衛星直下点 -10.72°S, 11.78°E
打ち上げ日 Jan 21, 2025
運用期間 1.6 years
タイプ internet

技術仕様

分類 Payload
質量 575.00 kg
乾燥質量 530.00 kg
長さ 0.30 m
スパン 29.00 m
形状 ? Box + pan
製造者 SPXS
バスタイプ Starlink V2MO
フェーズステータス In Orbit
所有者/国 SPXS/US

Most Searched